Retour au catalogue

BREEZE-M DEB

LostHEO
NORAD 39993·DEBRIS·🇷🇺 Russia

Lancé Mar 14, 2008 depuis Baikonur Cosmodrome

Loading…

Prochains Passages (prochaines 24 heures)

TLE

PériméSource: Space-Track

Époque: Aug 30, 2025, 23:47 UTC

1 39993U 08011DS  25242.99132959  .00000018  00000-0 -99854-3 0  9993
2 39993  50.9767 149.4089 6355867 268.0948  23.3818  3.17718844130609

Suivez BREEZE-M DEB en temps réel avec AllMySat

Download on the App Store